| time (UTC) | temp F | wind direction | speed knots | gust knots | rain 1hr in | rain 24hr in | rain mn in | humidity % | barometer mb |
| 20260507133016 | 50 | 28 | 0.0 | 1.7 | 0.00 | 0.00 | 0.00 | 93 | 1016.3 |
| 20260507132036 | 50 | 28 | 0.0 | 0.9 | 0.00 | 0.00 | 0.00 | 93 | 1016.3 |
| 20260507131040 | 50 | 0.0 | 0.0 | 0.00 | 0.00 | 0.00 | 93 | 1016.2 | |
| 20260507130016 | 50 | 0.0 | 0.0 | 0.00 | 0.00 | 0.00 | 93 | 1016.1 | |
| 20260507125100 | 50 | 0.0 | 0.9 | 0.00 | 0.00 | 0.00 | 93 | 1016.1 | |
| 20260507123016 | 50 | 28 | 0.0 | 0.9 | 0.00 | 0.00 | 0.00 | 92 | 1015.9 |
| 20260507122016 | 50 | 0.0 | 0.0 | 0.00 | 0.00 | 0.00 | 92 | 1015.8 | |
| 20260507121017 | 50 | 0.0 | 0.0 | 0.00 | 0.00 | 0.00 | 92 | 1015.8 | |
| 20260507120016 | 50 | 0.0 | 0.0 | 0.00 | 0.00 | 0.00 | 92 | 1015.7 | |
| 20260507115016 | 50 | 0.0 | 0.0 | 0.00 | 0.00 | 0.00 | 93 | 1015.7 | |
| 20260507113016 | 50 | 0.0 | 0.9 | 0.00 | 0.00 | 0.00 | 92 | 1015.8 | |
| 20260507111036 | 51 | 0.0 | 0.9 | 0.00 | 0.00 | 0.00 | 92 | 1016.0 | |
| 20260507110016 | 51 | 44 | 0.0 | 1.7 | 0.00 | 0.00 | 0.00 | 92 | 1016.1 |
| 20260507104036 | 51 | 39 | 0.9 | 2.6 | 0.00 | 0.00 | 0.00 | 92 | 1016.2 |
| 20260507103016 | 51 | 39 | 0.9 | 1.7 | 0.00 | 0.00 | 0.00 | 92 | 1016.2 |
| 20260507102033 | 51 | 39 | 0.9 | 2.6 | 0.00 | 0.00 | 0.00 | 92 | 1016.4 |
| 20260507100038 | 51 | 24 | 0.9 | 2.6 | 0.00 | 0.00 | 0.00 | 91 | 1016.5 |
| 20260507095038 | 52 | 0.0 | 0.0 | 0.00 | 0.00 | 0.00 | 91 | 1016.6 | |
| 20260507094016 | 52 | 24 | 0.0 | 1.7 | 0.00 | 0.00 | 0.00 | 91 | 1016.7 |
| 20260507093057 | 52 | 24 | 0.9 | 1.7 | 0.00 | 0.00 | 0.00 | 91 | 1016.6 |
| 20260507092016 | 52 | 24 | 0.9 | 1.7 | 0.00 | 0.00 | 0.00 | 91 | 1016.8 |
| 20260507091036 | 52 | 24 | 0.0 | 1.7 | 0.00 | 0.00 | 0.00 | 91 | 1016.9 |
| 20260507090016 | 52 | 24 | 0.9 | 1.7 | 0.00 | 0.00 | 0.00 | 91 | 1016.9 |
| 20260507085016 | 53 | 0.0 | 0.0 | 0.00 | 0.00 | 0.00 | 91 | 1017.0 | |
| 20260507084015 | 53 | 0.0 | 0.0 | 0.00 | 0.00 | 0.00 | 90 | 1017.1 | |
| 20260507083016 | 53 | 10 | 0.0 | 1.7 | 0.00 | 0.00 | 0.00 | 90 | 1017.3 |
| 20260507082036 | 53 | 24 | 0.0 | 1.7 | 0.00 | 0.00 | 0.00 | 90 | 1017.3 |
| 20260507081015 | 53 | 24 | 0.9 | 2.6 | 0.00 | 0.00 | 0.00 | 89 | 1017.4 |
| 20260507080016 | 54 | 7 | 0.9 | 2.6 | 0.00 | 0.00 | 0.00 | 89 | 1017.4 |
| 20260507075036 | 54 | 14 | 1.7 | 2.6 | 0.00 | 0.00 | 0.00 | 89 | 1017.4 |
| 20260507074015 | 54 | 0.0 | 0.0 | 0.00 | 0.00 | 0.00 | 89 | 1017.4 | |
| 20260507072015 | 55 | 53 | 0.0 | 1.7 | 0.00 | 0.00 | 0.00 | 89 | 1017.6 |
| 20260507071015 | 55 | 29 | 0.0 | 1.7 | 0.00 | 0.00 | 0.00 | 88 | 1017.7 |
| 20260507070036 | 55 | 30 | 0.0 | 1.7 | 0.00 | 0.00 | 0.00 | 88 | 1017.7 |
| 20260507065015 | 56 | 29 | 0.0 | 1.7 | 0.00 | 0.00 | 0.00 | 88 | 1017.7 |
| 20260507064015 | 56 | 58 | 0.9 | 1.7 | 0.00 | 0.00 | 0.00 | 88 | 1017.8 |
| 20260507062016 | 56 | 0.0 | 0.0 | 0.00 | 0.00 | 0.00 | 87 | 1017.6 | |
| 20260507061102 | 57 | 0.0 | 0.0 | 0.00 | 0.00 | 0.00 | 86 | 1017.6 | |
| 20260507060015 | 57 | 0.0 | 0.0 | 0.00 | 0.00 | 0.00 | 86 | 1017.6 | |
| 20260507054039 | 57 | 71 | 0.0 | 1.7 | 0.00 | 0.00 | 0.00 | 86 | 1017.8 |
| 20260507053027 | 58 | 32 | 0.0 | 1.7 | 0.00 | 0.00 | 0.00 | 85 | 1017.8 |
| 20260507052035 | 58 | 71 | 0.9 | 1.7 | 0.00 | 0.00 | 0.00 | 85 | 1017.8 |
| 20260507051015 | 58 | 95 | 0.0 | 1.7 | 0.00 | 0.00 | 0.00 | 84 | 1017.7 |
| 20260507050057 | 58 | 102 | 0.9 | 2.6 | 0.00 | 0.00 | 0.00 | 84 | 1017.6 |
| 20260507045036 | 59 | 109 | 0.9 | 1.7 | 0.00 | 0.00 | 0.00 | 83 | 1017.6 |
| 20260507044015 | 59 | 109 | 0.0 | 1.7 | 0.00 | 0.00 | 0.00 | 83 | 1017.5 |
| 20260507043015 | 59 | 121 | 0.0 | 1.7 | 0.00 | 0.00 | 0.00 | 82 | 1017.5 |
| 20260507042015 | 60 | 120 | 0.9 | 2.6 | 0.00 | 0.00 | 0.00 | 81 | 1017.5 |
| 20260507041035 | 60 | 203 | 0.0 | 0.9 | 0.00 | 0.00 | 0.00 | 81 | 1017.5 |
| 20260507040015 | 60 | 212 | 0.9 | 4.3 | 0.00 | 0.00 | 0.00 | 80 | 1017.3 |
| 20260507035041 | 61 | 208 | 1.7 | 4.3 | 0.00 | 0.00 | 0.00 | 80 | 1017.2 |
| 20260507034038 | 61 | 186 | 0.9 | 4.3 | 0.00 | 0.00 | 0.00 | 80 | 1017.0 |
| 20260507033038 | 62 | 187 | 0.9 | 3.5 | 0.00 | 0.00 | 0.00 | 79 | 1017.1 |
| 20260507032123 | 62 | 206 | 1.7 | 3.5 | 0.00 | 0.00 | 0.00 | 78 | 1017.0 |
| 20260507031017 | 62 | 187 | 2.6 | 6.1 | 0.00 | 0.00 | 0.00 | 77 | 1016.9 |
| 20260507030057 | 63 | 189 | 1.7 | 5.2 | 0.00 | 0.00 | 0.00 | 76 | 1016.8 |
| 20260507025035 | 63 | 206 | 2.6 | 5.2 | 0.00 | 0.00 | 0.00 | 74 | 1016.8 |
| 20260507024038 | 64 | 191 | 2.6 | 6.1 | 0.00 | 0.00 | 0.00 | 71 | 1016.7 |
| 20260507023017 | 65 | 202 | 3.5 | 6.1 | 0.00 | 0.00 | 0.00 | 69 | 1016.6 |
| 20260507021058 | 66 | 201 | 2.6 | 7.0 | 0.00 | 0.00 | 0.00 | 65 | 1016.4 |
| 20260507020119 | 67 | 187 | 4.3 | 8.7 | 0.00 | 0.00 | 0.00 | 62 | 1016.4 |
| 20260507015017 | 67 | 199 | 2.6 | 7.0 | 0.00 | 0.00 | 0.00 | 60 | 1016.2 |
| 20260507014038 | 68 | 189 | 3.5 | 8.7 | 0.00 | 0.00 | 0.00 | 59 | 1016.2 |
| 20260507013059 | 69 | 181 | 4.3 | 7.8 | 0.00 | 0.00 | 0.00 | 58 | 1016.1 |
| 20260507012017 | 69 | 184 | 4.3 | 11.3 | 0.00 | 0.00 | 0.00 | 58 | 1016.1 |
| 20260507011058 | 70 | 193 | 3.5 | 7.8 | 0.00 | 0.00 | 0.00 | 58 | 1016.0 |
| 20260507010037 | 70 | 216 | 4.3 | 10.4 | 0.00 | 0.00 | 0.00 | 58 | 1015.8 |
| 20260507005018 | 71 | 205 | 5.2 | 9.6 | 0.00 | 0.00 | 0.00 | 57 | 1015.9 |
| 20260507004018 | 71 | 194 | 4.3 | 10.4 | 0.00 | 0.00 | 0.00 | 57 | 1015.8 |
| 20260507003058 | 70 | 200 | 6.1 | 11.3 | 0.00 | 0.00 | 0.00 | 58 | 1015.8 |
| 20260507002018 | 71 | 196 | 6.1 | 11.3 | 0.00 | 0.00 | 0.00 | 59 | 1015.7 |
| 20260507001017 | 71 | 204 | 4.3 | 10.4 | 0.00 | 0.00 | 0.00 | 59 | 1015.6 |
| 20260507000041 | 72 | 210 | 5.2 | 10.4 | 0.00 | 0.00 | 0.00 | 58 | 1015.5 |
| 20260506235037 | 72 | 201 | 6.1 | 11.3 | 0.00 | 0.00 | 0.00 | 58 | 1015.5 |
| 20260506234058 | 73 | 217 | 7.0 | 12.2 | 0.00 | 0.00 | 0.00 | 58 | 1015.4 |
| 20260506233019 | 73 | 219 | 6.1 | 11.3 | 0.00 | 0.00 | 0.00 | 58 | 1015.5 |
| 20260506232018 | 73 | 208 | 7.0 | 14.8 | 0.00 | 0.00 | 0.00 | 57 | 1015.5 |
| 20260506231118 | 73 | 212 | 6.1 | 12.2 | 0.00 | 0.00 | 0.00 | 57 | 1015.5 |
| 20260506230038 | 73 | 223 | 7.0 | 13.0 | 0.00 | 0.00 | 0.00 | 56 | 1015.5 |
| 20260506225139 | 74 | 209 | 7.0 | 12.2 | 0.00 | 0.00 | 0.00 | 57 | 1015.5 |
| 20260506224039 | 74 | 219 | 7.0 | 13.0 | 0.00 | 0.00 | 0.00 | 57 | 1015.6 |
| 20260506223018 | 73 | 210 | 6.1 | 13.0 | 0.00 | 0.00 | 0.00 | 58 | 1015.7 |
| 20260506222037 | 73 | 215 | 6.1 | 13.9 | 0.00 | 0.00 | 0.00 | 59 | 1015.8 |
| 20260506221020 | 74 | 214 | 7.0 | 14.8 | 0.00 | 0.00 | 0.00 | 58 | 1016.0 |
| 20260506215017 | 73 | 226 | 6.1 | 12.2 | 0.00 | 0.00 | 0.00 | 59 | 1016.2 |
| 20260506214020 | 74 | 211 | 7.0 | 13.0 | 0.00 | 0.00 | 0.00 | 58 | 1016.3 |
| 20260506213017 | 74 | 205 | 7.0 | 14.8 | 0.00 | 0.00 | 0.00 | 58 | 1016.4 |
| 20260506212017 | 75 | 216 | 7.0 | 13.0 | 0.00 | 0.00 | 0.00 | 57 | 1016.4 |
| 20260506211017 | 74 | 197 | 5.2 | 12.2 | 0.00 | 0.00 | 0.00 | 57 | 1016.4 |
| 20260506210104 | 74 | 218 | 5.2 | 10.4 | 0.00 | 0.00 | 0.00 | 57 | 1016.4 |
| 20260506205017 | 74 | 212 | 7.0 | 13.0 | 0.00 | 0.00 | 0.00 | 58 | 1016.4 |
| 20260506204017 | 73 | 208 | 7.0 | 12.2 | 0.00 | 0.00 | 0.00 | 58 | 1016.4 |
| 20260506203017 | 73 | 223 | 5.2 | 12.2 | 0.00 | 0.00 | 0.00 | 59 | 1016.4 |
| 20260506202027 | 73 | 211 | 6.1 | 12.2 | 0.00 | 0.00 | 0.00 | 58 | 1016.6 |
| 20260506201017 | 73 | 202 | 6.1 | 12.2 | 0.00 | 0.00 | 0.00 | 59 | 1016.7 |
| 20260506200016 | 73 | 223 | 6.1 | 13.0 | 0.00 | 0.00 | 0.00 | 57 | 1016.9 |
| 20260506195017 | 74 | 199 | 7.0 | 14.8 | 0.00 | 0.00 | 0.00 | 55 | 1017.0 |
| 20260506194058 | 75 | 205 | 6.1 | 11.3 | 0.00 | 0.00 | 0.00 | 53 | 1017.1 |
| 20260506192017 | 74 | 244 | 3.5 | 7.8 | 0.00 | 0.00 | 0.00 | 50 | 1017.4 |
| 20260506191037 | 73 | 151 | 1.7 | 7.0 | 0.00 | 0.00 | 0.00 | 52 | 1017.6 |
| 20260506190140 | 72 | 175 | 2.6 | 6.1 | 0.00 | 0.00 | 0.00 | 54 | 1017.7 |
| 20260506185017 | 71 | 183 | 1.7 | 3.5 | 0.00 | 0.00 | 0.00 | 53 | 1017.8 |
| 20260506184017 | 71 | 302 | 2.6 | 6.1 | 0.00 | 0.00 | 0.00 | 53 | 1017.9 |
| 20260506183016 | 71 | 244 | 2.6 | 6.1 | 0.00 | 0.00 | 0.00 | 55 | 1018.0 |
| 20260506181016 | 71 | 249 | 2.6 | 6.1 | 0.00 | 0.00 | 0.00 | 55 | 1018.2 |
| 20260506180037 | 70 | 82 | 2.6 | 7.0 | 0.00 | 0.00 | 0.00 | 57 | 1018.3 |
| 20260506174023 | 67 | 239 | 2.6 | 6.1 | 0.00 | 0.00 | 0.00 | 59 | 1018.4 |
| 20260506173104 | 67 | 169 | 0.9 | 3.5 | 0.00 | 0.00 | 0.00 | 60 | 1018.4 |
| 20260506172038 | 67 | 187 | 1.7 | 3.5 | 0.00 | 0.00 | 0.00 | 60 | 1018.5 |
| 20260506171124 | 66 | 158 | 1.7 | 3.5 | 0.00 | 0.00 | 0.00 | 60 | 1018.5 |
| 20260506170159 | 65 | 64 | 0.9 | 4.3 | 0.00 | 0.00 | 0.00 | 62 | 1018.5 |
| 20260506165035 | 65 | 121 | 1.7 | 3.5 | 0.00 | 0.00 | 0.00 | 64 | 1018.5 |
| 20260506164113 | 64 | 197 | 1.7 | 6.1 | 0.00 | 0.00 | 0.00 | 65 | 1018.5 |
| 20260506163037 | 64 | 170 | 2.6 | 5.2 | 0.00 | 0.00 | 0.00 | 67 | 1018.5 |
| 20260506162016 | 63 | 224 | 1.7 | 5.2 | 0.00 | 0.00 | 0.00 | 69 | 1018.5 |
| 20260506161017 | 63 | 227 | 2.6 | 5.2 | 0.00 | 0.00 | 0.00 | 70 | 1018.5 |
| 20260506160017 | 62 | 176 | 1.7 | 5.2 | 0.00 | 0.00 | 0.00 | 70 | 1018.4 |
| 20260506155023 | 62 | 57 | 0.9 | 2.6 | 0.00 | 0.00 | 0.00 | 71 | 1018.4 |
| 20260506154016 | 61 | 192 | 0.9 | 2.6 | 0.00 | 0.00 | 0.00 | 73 | 1018.5 |
| 20260506153016 | 60 | 114 | 1.7 | 6.1 | 0.00 | 0.00 | 0.00 | 75 | 1018.5 |
| 20260506152047 | 59 | 53 | 1.7 | 4.3 | 0.00 | 0.00 | 0.00 | 78 | 1018.6 |
| 20260506151017 | 58 | 47 | 1.7 | 3.5 | 0.00 | 0.00 | 0.00 | 80 | 1018.6 |
| 20260506150016 | 56 | 56 | 3.5 | 5.2 | 0.00 | 0.00 | 0.00 | 84 | 1018.6 |
| 20260506145017 | 55 | 62 | 1.7 | 5.2 | 0.00 | 0.00 | 0.00 | 88 | 1018.5 |
| 20260506144037 | 53 | 57 | 3.5 | 6.1 | 0.00 | 0.00 | 0.00 | 91 | 1018.5 |
| 20260506143118 | 52 | 46 | 1.7 | 6.1 | 0.00 | 0.00 | 0.00 | 94 | 1018.5 |
| 20260506141119 | 50 | 7 | 1.7 | 2.6 | 0.00 | 0.00 | 0.00 | 95 | 1018.3 |
| 20260506140117 | 49 | 12 | 0.9 | 2.6 | 0.00 | 0.00 | 0.00 | 95 | 1018.2 |
| 20260506135017 | 47 | 358 | 0.9 | 2.6 | 0.00 | 0.00 | 0.00 | 95 | 1018.2 |
| 20260506134057 | 47 | 352 | 1.7 | 2.6 | 0.00 | 0.00 | 0.00 | 94 | 1018.1 |